TimeEDT,TemperatureF,Dew PointF,Humidity,Sea Level PressureIn,VisibilityMPH,Wind Direction,Wind SpeedMPH,Gust SpeedMPH,PrecipitationIn,Events,Conditions,WindDirDegrees,DateUTC
12:15 AM,62.6,62.6,100,29.98,0.8,ENE,4.6,-,N/A,,Mist,60,2012-10-03 04:15:00
12:42 AM,62.6,62.6,100,29.97,0.2,ENE,5.8,-,N/A,Fog,Fog,70,2012-10-03 04:42:00
12:53 AM,63.0,62.1,97,29.96,0.2,ENE,4.6,-,N/A,Fog,Fog,70,2012-10-03 04:53:00
1:53 AM,64.0,63.0,96,29.97,0.2,ENE,3.5,-,N/A,Fog,Fog,70,2012-10-03 05:53:00
2:17 AM,64.4,62.6,94,29.98,0.5,Calm,Calm,-,0.01,Fog,Fog,0,2012-10-03 06:17:00
2:53 AM,64.0,63.0,96,29.97,0.5,East,4.6,-,0.01,Fog,Fog,90,2012-10-03 06:53:00
3:39 AM,64.4,62.6,94,29.98,0.2,Calm,Calm,-,N/A,Fog,Fog,0,2012-10-03 07:39:00
3:53 AM,64.0,62.1,93,29.98,0.2,Calm,Calm,-,0.01,Fog-Rain,Light Rain,0,2012-10-03 07:53:00
4:00 AM,64.4,62.6,94,29.98,0.5,Calm,Calm,-,0.00,Fog-Rain,Light Rain,0,2012-10-03 08:00:00
4:46 AM,64.4,62.6,94,29.99,1.2,Calm,Calm,-,0.09,Rain,Light Rain,0,2012-10-03 08:46:00
4:53 AM,64.0,63.0,96,29.99,1.8,Calm,Calm,-,0.09,Rain,Light Rain,0,2012-10-03 08:53:00
5:00 AM,64.4,62.6,94,29.99,3.0,Calm,Calm,-,0.00,Rain,Light Rain,0,2012-10-03 09:00:00
5:35 AM,64.4,62.6,94,30.00,2.0,Calm,Calm,-,0.01,Rain,Light Rain,0,2012-10-03 09:35:00
5:44 AM,64.4,62.6,94,30.00,1.5,Calm,Calm,-,0.01,,Overcast,0,2012-10-03 09:44:00
5:53 AM,64.0,63.0,96,30.00,1.0,Calm,Calm,-,0.01,,Mist,0,2012-10-03 09:53:00
6:00 AM,64.4,62.6,94,30.01,0.8,Calm,Calm,-,N/A,,Mist,0,2012-10-03 10:00:00
6:53 AM,64.0,63.0,96,30.02,0.5,Calm,Calm,-,N/A,Fog,Fog,0,2012-10-03 10:53:00
7:40 AM,64.4,62.6,94,30.03,0.2,Calm,Calm,-,N/A,Fog,Fog,0,2012-10-03 11:40:00
7:53 AM,64.0,63.0,96,30.03,0.2,Calm,Calm,-,N/A,Fog,Fog,0,2012-10-03 11:53:00
8:53 AM,66.0,64.9,96,30.04,0.2,Calm,Calm,-,N/A,Fog,Fog,0,2012-10-03 12:53:00
9:53 AM,66.9,64.9,93,30.06,0.5,Calm,Calm,-,N/A,Fog,Fog,0,2012-10-03 13:53:00
10:25 AM,66.2,66.2,100,30.07,3.0,West,4.6,-,N/A,,Overcast,260,2012-10-03 14:25:00
10:33 AM,66.2,66.2,100,30.06,2.0,WSW,4.6,-,N/A,,Overcast,250,2012-10-03 14:33:00
10:53 AM,68.0,66.0,93,30.06,2.0,Calm,Calm,-,N/A,,Overcast,0,2012-10-03 14:53:00
11:53 AM,69.1,66.0,90,30.06,2.0,West,6.9,-,N/A,,Overcast,280,2012-10-03 15:53:00
12:53 PM,70.0,66.0,87,30.07,2.0,West,9.2,-,N/A,,Overcast,270,2012-10-03 16:53:00
1:17 PM,69.8,64.4,83,30.08,2.0,West,9.2,-,N/A,,Haze,280,2012-10-03 17:17:00
1:53 PM,71.1,64.9,81,30.06,2.0,West,9.2,-,N/A,,Haze,280,2012-10-03 17:53:00
2:00 PM,71.6,66.2,83,30.07,5.0,West,6.9,-,N/A,,Haze,280,2012-10-03 18:00:00
2:18 PM,71.6,64.4,78,30.07,5.0,West,6.9,-,N/A,,Haze,270,2012-10-03 18:18:00
2:33 PM,71.6,66.2,83,30.07,6.0,WNW,6.9,-,N/A,,Haze,290,2012-10-03 18:33:00
2:53 PM,72.0,64.9,78,30.06,6.0,West,8.1,-,N/A,,Haze,280,2012-10-03 18:53:00
3:08 PM,73.4,66.2,78,30.07,6.0,West,8.1,-,N/A,,Haze,280,2012-10-03 19:08:00
3:43 PM,73.4,66.2,78,30.07,6.0,West,8.1,-,N/A,,Haze,270,2012-10-03 19:43:00
3:53 PM,73.0,66.0,79,30.06,6.0,West,5.8,-,N/A,,Haze,280,2012-10-03 19:53:00
4:13 PM,73.4,66.2,78,30.07,6.0,West,5.8,-,N/A,,Haze,280,2012-10-03 20:13:00
4:53 PM,73.0,66.0,79,30.07,7.0,WNW,4.6,-,N/A,,Clear,300,2012-10-03 20:53:00
5:53 PM,72.0,66.0,81,30.08,7.0,Calm,Calm,-,N/A,,Clear,0,2012-10-03 21:53:00
6:53 PM,71.1,66.0,84,30.09,7.0,Calm,Calm,-,N/A,,Clear,0,2012-10-03 22:53:00
7:53 PM,69.1,64.9,87,30.10,5.0,Calm,Calm,-,N/A,,Clear,0,2012-10-03 23:53:00
8:53 PM,66.9,64.9,93,30.12,4.0,Calm,Calm,-,N/A,,Clear,0,2012-10-04 00:53:00
9:53 PM,66.0,64.0,93,30.12,3.0,ENE,4.6,-,N/A,,Clear,70,2012-10-04 01:53:00
10:04 PM,66.2,64.4,94,30.12,2.5,ENE,3.5,-,N/A,,Clear,70,2012-10-04 02:04:00
10:53 PM,66.0,64.9,96,30.12,2.0,Calm,Calm,-,N/A,,Clear,0,2012-10-04 02:53:00
11:07 PM,66.2,64.4,94,30.13,1.5,Calm,Calm,-,N/A,,Clear,0,2012-10-04 03:07:00
11:53 PM,66.0,64.9,96,30.13,1.0,Calm,Calm,-,0.00,,Partly Cloudy,0,2012-10-04 03:53:00